�N����,����,�~����,�C��,���x,�C��,����,���ϕ���,�ő�u�ԕ���,�ő厞����,���˗�,�I�_���x,�n�����x,�ő啗���N��,DTYPE
"20/08/19","00:10",0.0,24.8,80.1,1005.2,338.0,1.7,4.5,334.5,0.00,21.2,27.8,"00:02:48",1
"20/08/19","00:20",0.0,24.8,80.5,1005.2,333.6,1.8,3.3,336.7,0.00,21.3,27.5,"00:19:12",1
"20/08/19","00:30",0.0,24.7,80.7,1005.0,327.5,2.0,3.7,312.5,0.00,21.2,27.5,"00:26:16",1
"20/08/19","00:40",0.0,24.6,80.6,1005.5,314.1,1.8,3.3,333.5,0.00,21.1,27.2,"00:33:44",1
"20/08/19","00:50",0.0,24.4,80.5,1005.5,309.1,1.2,2.8,340.7,0.00,20.9,27.1,"00:49:44",1
"20/08/19","01:00",0.0,24.4,80.6,1005.5,333.6,2.0,3.9,349.9,0.00,20.9,27.2,"00:51:12",1
"20/08/19","01:10",0.0,24.3,81.1,1005.5,337.4,1.6,2.6,342.5,0.00,20.9,27.1,"01:00:08",1
"20/08/19","01:20",0.0,24.1,81.8,1005.2,335.4,1.3,1.9,345.1,0.00,20.8,27.2,"01:10:16",1
"20/08/19","01:30",0.0,24.0,82.5,1005.2,335.4,1.2,1.9,334.4,0.00,20.9,26.8,"01:24:16",1
"20/08/19","01:40",0.0,23.9,83.0,1005.2,332.9,1.3,2.7,342.7,0.00,20.9,27.0,"01:34:00",1
"20/08/19","01:50",0.0,24.1,83.6,1006.0,334.1,2.1,4.7,344.5,0.00,21.2,26.7,"01:48:48",1
"20/08/19","02:00",0.0,24.3,83.6,1005.5,330.1,2.5,4.1,335.7,0.00,21.4,27.0,"01:53:44",1
"20/08/19","02:10",0.0,24.3,83.6,1005.5,327.2,2.1,4.1,341.0,0.00,21.4,26.8,"02:00:40",1
"20/08/19","02:20",0.0,24.1,83.7,1005.2,319.8,1.6,3.1,336.3,0.00,21.2,26.7,"02:14:48",1
"20/08/19","02:30",0.0,23.9,83.4,1005.5,322.7,2.1,3.5,336.1,0.00,21.0,26.7,"02:29:20",1
"20/08/19","02:40",0.0,23.9,83.0,1006.0,315.8,1.7,3.1,341.4,0.00,20.9,26.7,"02:37:04",1
"20/08/19","02:50",0.0,23.9,82.6,1005.5,327.4,2.0,3.3,311.9,0.00,20.8,26.8,"02:40:32",1
"20/08/19","03:00",0.0,23.9,82.5,1005.2,323.2,2.0,2.9,335.7,0.00,20.8,26.7,"02:53:28",1
"20/08/19","03:10",0.0,23.9,82.6,1005.2,323.5,1.8,3.3,339.2,0.00,20.8,26.4,"03:07:52",1
"20/08/19","03:20",0.0,24.0,83.0,1005.5,333.1,1.7,3.1,338.2,0.00,21.0,26.4,"03:16:00",1
"20/08/19","03:30",0.0,23.8,83.5,1005.2,335.4,1.8,3.3,333.1,0.00,20.9,26.5,"03:21:28",1
"20/08/19","03:40",0.0,23.5,84.1,1005.2,334.7,1.3,3.1,327.8,0.00,20.7,26.4,"03:37:36",1
"20/08/19","03:50",0.0,23.4,84.6,1005.2,333.5,1.3,2.5,337.3,0.00,20.7,26.5,"03:47:36",1
"20/08/19","04:00",0.0,23.3,85.1,1005.2,335.5,1.3,2.4,331.4,0.00,20.7,26.1,"03:53:36",1
"20/08/19","04:10",0.0,23.2,85.5,1005.5,337.0,1.6,2.5,351.3,0.00,20.7,26.2,"04:03:04",1
"20/08/19","04:20",0.0,23.1,85.8,1005.0,331.9,1.3,2.1,349.0,0.00,20.6,26.2,"04:19:12",1
"20/08/19","04:30",0.0,23.0,86.2,1005.5,334.0,1.5,2.5,325.0,0.00,20.6,26.3,"04:28:08",1
"20/08/19","04:40",0.0,23.0,86.5,1005.5,338.6,1.6,2.8,358.4,0.00,20.7,26.3,"04:34:00",1
"20/08/19","04:50",0.0,23.1,86.7,1005.7,341.9,1.5,2.9,352.2,0.00,20.8,26.0,"04:44:32",1
"20/08/19","05:00",0.0,23.0,87.0,1005.7,335.1,1.6,3.1,340.2,0.00,20.8,26.1,"04:54:00",1
"20/08/19","05:10",0.0,22.8,87.2,1006.0,330.6,1.6,2.8,350.6,0.00,20.6,26.0,"05:06:56",1
"20/08/19","05:20",0.0,22.9,87.6,1006.0,331.5,1.5,2.8,333.3,0.00,20.8,25.9,"05:19:44",1
"20/08/19","05:30",0.0,23.0,87.8,1006.0,336.8,1.6,2.9,334.0,0.00,20.9,25.8,"05:24:32",1
"20/08/19","05:40",0.0,22.9,87.9,1006.2,336.5,1.7,3.3,334.6,0.00,20.8,25.8,"05:33:36",1
"20/08/19","05:50",0.0,22.9,88.0,1006.2,337.1,1.5,2.9,346.3,0.00,20.8,25.7,"05:44:40",1
"20/08/19","06:00",0.0,23.0,88.1,1006.2,335.1,1.6,2.9,333.2,0.00,21.0,25.8,"05:56:56",1
"20/08/19","06:10",0.0,23.5,88.1,1006.4,342.7,1.8,3.4,326.1,0.00,21.5,25.9,"06:03:44",1
"20/08/19","06:20",0.0,23.7,87.8,1006.7,339.2,1.6,4.1,337.5,0.01,21.6,25.6,"06:17:28",1
"20/08/19","06:30",0.0,24.1,87.4,1006.4,340.0,1.5,3.1,352.0,0.02,21.9,25.8,"06:22:40",1
"20/08/19","06:40",0.0,24.5,86.6,1006.4,344.4,1.1,2.0,338.5,0.04,22.2,26.0,"06:32:40",1
"20/08/19","06:50",0.0,24.9,85.3,1006.4,337.3,1.1,2.9,343.9,0.05,22.3,25.9,"06:45:52",1
"20/08/19","07:00",0.0,25.4,84.0,1006.4,336.3,1.5,3.5,354.4,0.07,22.5,26.0,"06:56:56",1
"20/08/19","07:10",0.0,25.8,82.6,1006.4,336.4,1.7,4.1,336.7,0.09,22.7,25.9,"07:03:44",1
"20/08/19","07:20",0.0,26.4,80.8,1006.0,329.0,1.3,2.5,347.6,0.11,22.9,26.4,"07:19:12",1
"20/08/19","07:30",0.0,26.9,79.1,1006.0,339.4,1.3,2.7,336.3,0.14,23.0,26.6,"07:25:20",1
"20/08/19","07:40",0.0,27.3,76.8,1006.0,333.2,1.3,3.2,335.3,0.16,22.9,26.5,"07:30:24",1
"20/08/19","07:50",0.0,28.4,74.8,1005.5,325.0,0.7,2.4,352.9,0.19,23.5,26.8,"07:42:16",1
"20/08/19","08:00",0.0,29.4,71.4,1005.7,55.3,0.3,1.1,79.6,0.22,23.7,27.0,"07:54:00",1
"20/08/19","08:10",0.0,30.2,68.0,1006.2,32.3,0.3,1.4,22.2,0.24,23.7,27.1,"08:09:52",1
"20/08/19","08:20",0.0,30.6,64.6,1006.4,34.0,0.8,1.6,346.4,0.27,23.2,27.2,"08:16:00",1
"20/08/19","08:30",0.0,30.8,64.4,1006.4,148.7,0.6,1.3,113.0,0.27,23.3,27.6,"08:21:04",1
"20/08/19","08:40",0.0,31.2,63.9,1006.7,125.3,0.7,1.6,152.2,0.30,23.6,27.9,"08:35:28",1
"20/08/19","08:50",0.0,31.5,62.6,1007.1,126.2,0.6,2.5,111.6,0.32,23.5,28.1,"08:44:48",1
"20/08/19","09:00",0.0,31.7,61.9,1007.6,51.4,0.7,2.5,116.4,0.32,23.5,28.2,"08:52:24",1
"20/08/19","09:10",0.0,31.8,60.9,1007.4,114.0,1.0,2.2,51.6,0.38,23.4,28.5,"09:08:48",1
"20/08/19","09:20",0.0,32.3,59.7,1007.8,42.9,0.7,1.9,3.5,0.40,23.5,28.8,"09:15:44",1
"20/08/19","09:30",0.0,32.7,58.6,1007.8,193.0,0.6,1.3,199.9,0.41,23.6,29.1,"09:22:00",1
"20/08/19","09:40",0.0,33.3,57.1,1007.8,88.5,0.5,2.2,225.9,0.44,23.7,29.2,"09:39:20",1
"20/08/19","09:50",0.0,32.8,57.7,1007.8,219.7,1.1,2.9,206.2,0.45,23.4,29.7,"09:41:20",1
"20/08/19","10:00",0.0,33.2,55.8,1007.6,163.6,1.1,2.4,202.5,0.47,23.2,29.9,"09:58:32",1
"20/08/19","10:10",0.0,33.4,53.5,1007.8,188.4,1.2,3.3,206.4,0.48,22.7,30.1,"10:04:48",1
"20/08/19","10:20",0.0,33.5,52.7,1007.6,166.1,1.1,2.7,212.7,0.49,22.6,30.5,"10:13:20",1
"20/08/19","10:30",0.0,34.2,52.1,1007.8,201.5,0.7,2.0,219.4,0.50,23.0,30.8,"10:22:40",1
"20/08/19","10:40",0.0,34.1,51.0,1007.6,174.2,1.6,4.0,203.5,0.49,22.6,31.0,"10:33:36",1
"20/08/19","10:50",0.0,34.6,48.4,1007.1,153.9,0.7,1.8,158.6,0.49,22.2,31.3,"10:40:08",1
"20/08/19","11:00",0.0,34.6,47.5,1007.6,170.8,1.1,3.2,212.8,0.50,21.9,31.5,"10:53:36",1
"20/08/19","11:10",0.0,35.0,47.1,1007.8,243.5,1.1,3.7,218.6,0.52,22.1,31.7,"11:05:36",1
"20/08/19","11:20",0.0,35.2,44.5,1007.4,145.5,1.2,4.1,188.4,0.54,21.3,32.2,"11:16:24",1
"20/08/19","11:30",0.0,35.9,45.0,1007.4,166.2,1.0,2.5,218.0,0.56,22.1,32.4,"11:23:28",1
"20/08/19","11:40",0.0,36.4,45.6,1007.4,181.4,1.1,2.2,200.4,0.57,22.8,32.8,"11:38:56",1
"20/08/19","11:50",0.0,36.3,44.2,1007.4,164.4,1.1,4.1,210.9,0.57,22.2,33.0,"11:44:32",1
"20/08/19","12:00",0.0,36.1,41.2,1007.1,133.8,1.7,4.2,113.5,0.57,20.9,33.2,"11:59:04",1
"20/08/19","12:10",0.0,36.6,41.7,1006.9,114.7,1.2,2.7,349.7,0.57,21.5,33.3,"12:01:20",1
"20/08/19","12:20",0.0,36.4,42.1,1007.1,115.4,1.5,4.0,113.8,0.57,21.5,33.7,"12:15:52",1
"20/08/19","12:30",0.0,36.9,41.8,1006.9,108.3,1.0,2.4,16.4,0.57,21.8,34.0,"12:26:08",1
"20/08/19","12:40",0.0,37.3,41.0,1006.9,169.4,1.1,2.2,191.0,0.56,21.9,34.1,"12:37:12",1
"20/08/19","12:50",0.0,37.2,39.8,1007.1,112.6,1.1,2.7,181.3,0.55,21.3,34.2,"12:40:08",1
"20/08/19","13:00",0.0,37.3,39.0,1006.9,141.2,1.0,2.0,119.6,0.55,21.1,34.6,"12:58:00",1
"20/08/19","13:10",0.0,37.2,42.6,1007.1,113.3,1.5,2.9,104.0,0.54,22.4,34.7,"13:04:08",1
"20/08/19","13:20",0.0,37.0,39.2,1006.9,127.6,1.6,2.7,111.5,0.54,20.9,35.0,"13:12:48",1
"20/08/19","13:30",0.0,37.4,39.2,1006.7,179.1,1.3,2.6,200.5,0.53,21.2,35.1,"13:24:08",1
"20/08/19","13:40",0.0,37.2,38.4,1006.7,97.8,1.2,3.3,117.9,0.52,20.7,35.2,"13:32:40",1
"20/08/19","13:50",0.0,37.3,38.2,1006.4,176.8,1.6,4.4,216.0,0.51,20.7,35.3,"13:48:16",1
"20/08/19","14:00",0.0,37.8,37.6,1006.4,198.2,1.1,2.5,165.6,0.50,20.9,35.3,"13:51:20",1
"20/08/19","14:10",0.0,38.1,36.2,1006.7,101.7,1.0,2.1,169.0,0.48,20.6,35.1,"14:01:28",1
"20/08/19","14:20",0.0,38.1,38.3,1006.4,161.2,1.1,3.6,201.5,0.47,21.5,35.0,"14:15:36",1
"20/08/19","14:30",0.0,38.4,37.4,1006.4,205.1,1.1,3.6,226.2,0.46,21.3,35.1,"14:20:16",1
"20/08/19","14:40",0.0,38.7,34.5,1006.2,344.3,1.0,2.0,353.8,0.44,20.3,35.2,"14:35:20",1
"20/08/19","14:50",0.0,38.4,33.7,1006.0,25.3,1.2,2.6,2.1,0.43,19.7,35.1,"14:47:28",1
"20/08/19","15:00",0.0,39.0,34.0,1006.0,171.6,1.0,2.6,214.9,0.41,20.3,35.2,"14:57:12",1
"20/08/19","15:10",0.0,38.6,34.5,1005.7,204.2,1.2,2.9,207.7,0.39,20.2,35.2,"15:06:08",1
"20/08/19","15:20",0.0,39.2,35.0,1005.5,272.0,0.5,1.3,305.5,0.37,21.0,35.2,"15:16:16",1
"20/08/19","15:30",0.0,39.0,32.5,1005.7,200.6,1.1,4.2,226.3,0.35,19.6,35.2,"15:29:52",1
"20/08/19","15:40",0.0,38.6,35.1,1005.2,236.4,1.3,3.6,214.2,0.32,20.5,35.2,"15:32:56",1
"20/08/19","15:50",0.0,38.2,35.7,1005.0,133.8,1.1,2.4,183.2,0.29,20.4,35.1,"15:43:36",1
"20/08/19","16:00",0.0,37.9,37.1,1005.0,153.3,1.3,3.5,187.1,0.27,20.8,35.2,"15:58:08",1
"20/08/19","16:10",0.0,37.6,38.0,1005.0,158.5,1.5,2.7,134.4,0.25,20.9,34.8,"16:04:16",1
"20/08/19","16:20",0.0,37.8,35.4,1004.8,215.8,1.3,3.6,204.2,0.23,19.9,34.6,"16:17:20",1
"20/08/19","16:30",0.0,38.0,36.3,1004.3,257.2,0.8,3.1,227.8,0.20,20.5,34.5,"16:20:16",1
"20/08/19","16:40",0.0,38.1,37.2,1005.0,193.5,0.7,3.1,220.6,0.18,21.0,34.4,"16:34:24",1
"20/08/19","16:50",0.0,37.7,37.7,1004.5,210.9,1.3,3.3,216.5,0.16,20.9,34.3,"16:44:00",1
"20/08/19","17:00",0.0,37.5,36.1,1004.3,212.5,1.2,2.9,229.0,0.13,20.0,33.9,"16:56:24",1
"20/08/19","17:10",0.0,37.5,38.3,1004.5,255.4,0.8,2.7,207.0,0.10,20.9,34.0,"17:03:12",1
"20/08/19","17:20",0.0,37.5,38.9,1004.1,301.7,0.5,2.0,350.1,0.08,21.2,33.7,"17:18:24",1
"20/08/19","17:30",0.0,37.1,39.8,1004.3,306.7,0.5,1.2,351.3,0.06,21.2,33.5,"17:29:44",1
"20/08/19","17:40",0.0,36.6,43.0,1004.3,258.7,0.5,1.0,213.5,0.04,22.0,33.4,"17:33:12",1
"20/08/19","17:50",0.0,35.7,45.9,1004.3,285.0,0.3,0.9,298.4,0.03,22.3,33.2,"17:44:48",1
"20/08/19","18:00",0.0,34.6,48.8,1004.1,330.0,0.8,1.7,348.5,0.01,22.3,32.9,"17:59:04",1
"20/08/19","18:10",0.0,33.6,53.5,1003.8,345.7,0.8,1.7,346.1,0.00,22.9,32.8,"18:00:32",1
"20/08/19","18:20",0.0,32.8,54.9,1003.4,353.3,0.6,1.1,344.3,0.00,22.6,32.7,"18:14:56",1
"20/08/19","18:30",0.0,32.0,56.3,1002.6,290.1,0.3,1.8,346.5,0.00,22.3,32.5,"18:28:56",1
"20/08/19","18:40",0.0,31.5,56.1,1002.6,347.3,1.1,2.4,357.5,0.00,21.7,32.5,"18:37:28",1
"20/08/19","18:50",0.0,31.3,56.5,1002.4,328.2,1.2,3.1,315.7,0.00,21.7,32.2,"18:46:56",1
"20/08/19","19:00",0.0,31.0,57.5,1001.9,346.0,1.5,2.7,352.6,0.00,21.7,32.0,"18:58:00",1
"20/08/19","19:10",0.0,30.9,57.6,1001.9,337.6,1.5,3.6,339.4,0.00,21.6,31.9,"19:05:36",1
"20/08/19","19:20",0.0,30.8,57.4,1002.2,315.2,1.2,2.7,2.5,0.00,21.5,31.7,"19:15:12",1
"20/08/19","19:30",0.0,30.6,59.5,1001.9,27.6,0.7,1.8,345.7,0.00,21.9,31.4,"19:29:44",1
"20/08/19","19:40",0.0,29.9,60.9,1001.9,344.6,1.1,2.2,344.7,0.00,21.6,31.5,"19:34:16",1
"20/08/19","19:50",0.0,29.7,61.6,1001.9,291.2,0.6,1.8,295.6,0.00,21.6,31.2,"19:49:28",1
"20/08/19","20:00",0.0,29.4,62.2,1002.4,291.5,0.7,2.1,333.3,0.00,21.5,31.1,"19:55:36",1
"20/08/19","20:10",0.0,29.3,63.0,1003.1,323.5,1.0,1.6,326.9,0.00,21.6,31.1,"20:02:00",1
"20/08/19","20:20",0.0,29.1,63.5,1003.4,273.3,0.7,1.6,334.5,0.00,21.5,30.7,"20:10:08",1
"20/08/19","20:30",0.0,28.9,64.0,1003.6,298.4,0.7,1.4,337.0,0.00,21.4,30.5,"20:24:00",1
"20/08/19","20:40",0.0,28.8,64.6,1003.8,285.2,0.8,2.2,344.3,0.00,21.5,30.5,"20:34:32",1
"20/08/19","20:50",0.0,28.7,65.2,1004.1,272.2,0.7,1.8,258.2,0.00,21.6,30.4,"20:41:52",1
"20/08/19","21:00",0.0,28.5,65.7,1003.8,277.7,0.7,1.6,254.2,0.00,21.5,30.2,"20:54:08",1
"20/08/19","21:10",0.0,28.3,66.2,1003.8,277.9,0.6,1.2,245.5,0.00,21.4,30.3,"21:09:44",1
"20/08/19","21:20",0.0,28.2,67.0,1004.1,313.5,1.2,2.7,323.5,0.00,21.5,30.0,"21:19:20",1
"20/08/19","21:30",0.0,28.2,67.5,1004.1,306.1,1.2,2.2,343.3,0.00,21.7,29.7,"21:21:04",1
"20/08/19","21:40",0.0,28.1,68.2,1004.1,305.6,1.2,2.6,337.2,0.00,21.7,29.6,"21:35:52",1
"20/08/19","21:50",0.0,27.9,68.9,1004.1,276.8,0.8,1.4,315.3,0.00,21.7,29.4,"21:45:52",1
"20/08/19","22:00",0.0,27.7,69.6,1004.3,268.5,0.7,1.3,249.6,0.00,21.7,29.5,"21:56:40",1
"20/08/19","22:10",0.0,27.4,70.8,1004.5,285.0,0.8,1.4,323.0,0.00,21.7,29.4,"22:04:56",1
"20/08/19","22:20",0.0,27.3,71.4,1004.5,287.1,0.7,1.4,255.1,0.00,21.7,29.4,"22:12:00",1
"20/08/19","22:30",0.0,27.1,71.9,1004.8,277.4,0.6,1.1,315.5,0.00,21.6,29.2,"22:26:56",1
"20/08/19","22:40",0.0,27.1,72.4,1005.0,268.6,0.8,1.3,324.3,0.00,21.7,29.2,"22:30:02",1
"20/08/19","22:50",0.0,26.9,73.1,1004.8,280.1,0.7,2.7,329.6,0.00,21.7,29.0,"22:44:24",1
"20/08/19","23:00",0.0,26.9,73.5,1005.0,291.5,0.8,1.8,316.8,0.00,21.8,29.0,"22:58:16",1
"20/08/19","23:10",0.0,26.8,73.8,1005.0,271.0,0.7,1.7,314.7,0.00,21.8,28.8,"23:01:44",1
"20/08/19","23:20",0.0,26.7,74.2,1005.5,290.6,0.8,1.3,258.4,0.00,21.8,28.8,"23:12:32",1
"20/08/19","23:30",0.0,26.6,74.7,1005.5,272.8,0.6,1.0,261.6,0.00,21.8,28.8,"23:21:20",1
"20/08/19","23:40",0.0,26.5,75.3,1005.5,285.9,0.7,1.6,264.3,0.00,21.8,28.6,"23:33:36",1
"20/08/19","23:50",0.0,26.4,76.0,1005.7,318.9,1.1,2.0,329.4,0.00,21.9,28.7,"23:41:52",1
"20/08/19","24:00",0.0,26.4,76.6,1005.5,327.4,1.3,2.5,339.6,0.00,22.0,28.4,"23:59:44",1
